Time,TemperatureF,DewpointF,PressureIn,WindDirection,WindDirectionDegrees,WindSpeedMPH,WindSpeedGustMPH,Humidity,HourlyPrecipIn,Conditions,Clouds,dailyrainin,SoftwareType,DateUTC
2013-03-12 00:00:00,53.4,47.7,29.97,ENE,75,0.0,7.0,81,0.00,,---,0.00,VWS V14.01,2013-03-12 04:00:00,
2013-03-12 00:05:00,53.5,47.8,29.97,ENE,71,5.0,6.0,81,0.00,,---,0.00,VWS V14.01,2013-03-12 04:05:00,
2013-03-12 00:10:00,53.6,47.6,29.97,West,281,1.0,6.0,80,0.00,,---,0.00,VWS V14.01,2013-03-12 04:10:00,
2013-03-12 00:15:00,53.7,47.7,29.96,East,98,2.0,6.0,80,0.00,,---,0.00,VWS V14.01,2013-03-12 04:15:00,
2013-03-12 00:20:00,53.7,47.7,29.95,ESE,108,0.0,6.0,80,0.00,,---,0.00,VWS V14.01,2013-03-12 04:20:00,
2013-03-12 00:25:00,53.6,47.6,29.95,East,89,4.0,7.0,80,0.00,,---,0.00,VWS V14.01,2013-03-12 04:25:00,
2013-03-12 00:30:00,53.4,47.4,29.94,East,86,0.0,7.0,80,0.00,,---,0.00,VWS V14.01,2013-03-12 04:30:00,
2013-03-12 00:35:00,53.4,47.4,29.94,ESE,106,5.0,7.0,80,0.00,,---,0.00,VWS V14.01,2013-03-12 04:35:00,
2013-03-12 00:40:00,53.3,47.3,29.93,ENE,73,1.0,7.0,80,0.00,,---,0.00,VWS V14.01,2013-03-12 04:40:00,
2013-03-12 00:45:00,53.3,47.3,29.93,East,101,2.0,7.0,80,0.00,,---,0.00,VWS V14.01,2013-03-12 04:45:00,
2013-03-12 00:50:00,53.3,47.6,29.93,East,85,0.0,7.0,81,0.00,,---,0.00,VWS V14.01,2013-03-12 04:50:00,
2013-03-12 00:55:00,53.1,47.8,29.92,ENE,69,2.0,7.0,82,0.00,,---,0.00,VWS V14.01,2013-03-12 04:55:00,
2013-03-12 01:00:00,52.9,47.9,29.94,NE,38,0.0,7.0,83,0.00,,---,0.00,VWS V14.01,2013-03-12 05:00:00,
2013-03-12 01:05:00,52.8,47.8,29.94,East,96,1.0,6.0,83,0.00,,---,0.00,VWS V14.01,2013-03-12 05:05:00,
2013-03-12 01:10:00,52.8,48.1,29.94,WSW,238,2.0,7.0,84,0.00,,---,0.00,VWS V14.01,2013-03-12 05:10:00,
2013-03-12 01:15:00,52.7,48.0,29.93,NW,304,2.0,7.0,84,0.00,,---,0.00,VWS V14.01,2013-03-12 05:15:00,
2013-03-12 01:20:00,52.6,47.9,29.93,North,356,2.0,8.0,84,0.00,,---,0.00,VWS V14.01,2013-03-12 05:20:00,
2013-03-12 01:25:00,52.7,47.7,29.92,East,97,5.0,8.0,83,0.00,,---,0.00,VWS V14.01,2013-03-12 05:25:00,
2013-03-12 01:30:00,52.6,47.6,29.92,East,89,2.0,8.0,83,0.00,,---,0.00,VWS V14.01,2013-03-12 05:30:00,
2013-03-12 01:35:00,52.5,47.5,29.91,WSW,243,0.0,5.0,83,0.00,,---,0.00,VWS V14.01,2013-03-12 05:35:00,
2013-03-12 01:40:00,52.4,47.7,29.91,SE,125,2.0,5.0,84,0.00,,---,0.00,VWS V14.01,2013-03-12 05:40:00,
2013-03-12 01:45:00,52.4,47.7,29.91,East,96,3.0,5.0,84,0.00,,---,0.00,VWS V14.01,2013-03-12 05:45:00,
2013-03-12 01:50:00,52.4,47.7,29.91,SSE,152,0.0,8.0,84,0.00,,---,0.00,VWS V14.01,2013-03-12 05:50:00,
2013-03-12 01:55:00,52.5,47.8,29.90,ENE,78,2.0,9.0,84,0.00,,---,0.00,VWS V14.01,2013-03-12 05:55:00,
2013-03-12 02:00:00,52.6,47.9,29.91,ESE,102,7.0,9.0,84,0.00,,---,0.00,VWS V14.01,2013-03-12 06:00:00,
2013-03-12 02:05:00,52.7,47.7,29.91,East,84,3.0,7.0,83,0.00,,---,0.00,VWS V14.01,2013-03-12 06:05:00,
2013-03-12 02:10:00,52.8,47.8,29.91,East,85,2.0,7.0,83,0.00,,---,0.00,VWS V14.01,2013-03-12 06:10:00,
2013-03-12 02:15:00,53.0,48.3,29.91,East,82,1.0,7.0,84,0.00,,---,0.00,VWS V14.01,2013-03-12 06:15:00,
2013-03-12 02:20:00,53.2,48.2,29.92,East,94,3.0,7.0,83,0.00,,---,0.00,VWS V14.01,2013-03-12 06:20:00,
2013-03-12 02:25:00,53.3,48.3,29.91,NW,305,2.0,7.0,83,0.00,,---,0.00,VWS V14.01,2013-03-12 06:25:00,
2013-03-12 02:30:00,53.4,48.4,29.91,ESE,117,3.0,7.0,83,0.00,,---,0.00,VWS V14.01,2013-03-12 06:30:00,
2013-03-12 02:35:00,53.3,48.6,29.90,ENE,68,1.0,5.0,84,0.01,,---,0.01,VWS V14.01,2013-03-12 06:35:00,
2013-03-12 02:40:00,53.2,48.5,29.90,East,96,0.0,5.0,84,0.01,,---,0.01,VWS V14.01,2013-03-12 06:40:00,
2013-03-12 02:45:00,53.1,48.7,29.91,WNW,301,1.0,5.0,85,0.01,,---,0.01,VWS V14.01,2013-03-12 06:45:00,
2013-03-12 02:50:00,53.0,48.9,29.91,North,1,1.0,7.0,86,0.01,,---,0.01,VWS V14.01,2013-03-12 06:50:00,
2013-03-12 02:55:00,52.8,48.7,29.90,East,89,0.0,7.0,86,0.01,,---,0.01,VWS V14.01,2013-03-12 06:55:00,
2013-03-12 03:00:00,52.7,49.0,29.90,WNW,293,1.0,7.0,87,0.01,,---,0.01,VWS V14.01,2013-03-12 07:00:00,
2013-03-12 03:05:00,52.6,48.8,29.90,North,1,1.0,5.0,87,0.01,,---,0.01,VWS V14.01,2013-03-12 07:05:00,
2013-03-12 03:10:00,52.6,48.8,29.90,East,98,1.0,5.0,87,0.01,,---,0.01,VWS V14.01,2013-03-12 07:10:00,
2013-03-12 03:15:00,52.5,48.8,29.89,ENE,62,4.0,5.0,87,0.02,,---,0.02,VWS V14.01,2013-03-12 07:15:00,
2013-03-12 03:20:00,52.4,49.0,29.89,SW,225,0.0,5.0,88,0.02,,---,0.02,VWS V14.01,2013-03-12 07:20:00,
2013-03-12 03:25:00,52.4,49.0,29.89,ESE,115,0.0,5.0,88,0.02,,---,0.02,VWS V14.01,2013-03-12 07:25:00,
2013-03-12 03:30:00,52.3,49.2,29.88,ESE,120,2.0,5.0,89,0.02,,---,0.02,VWS V14.01,2013-03-12 07:30:00,
2013-03-12 03:35:00,52.1,49.0,29.88,ENE,78,2.0,3.0,89,0.03,,---,0.03,VWS V14.01,2013-03-12 07:35:00,
2013-03-12 03:40:00,52.0,49.2,29.88,East,86,1.0,4.0,90,0.03,,---,0.03,VWS V14.01,2013-03-12 07:40:00,
2013-03-12 03:45:00,51.9,49.1,29.87,ESE,109,1.0,6.0,90,0.03,,---,0.03,VWS V14.01,2013-03-12 07:45:00,
2013-03-12 03:50:00,51.8,49.0,29.86,East,92,1.0,7.0,90,0.03,,---,0.03,VWS V14.01,2013-03-12 07:50:00,
2013-03-12 03:55:00,51.7,49.2,29.86,East,99,0.0,7.0,91,0.03,,---,0.03,VWS V14.01,2013-03-12 07:55:00,
2013-03-12 04:00:00,51.7,49.2,29.87,ESE,109,2.0,7.0,91,0.03,,---,0.03,VWS V14.01,2013-03-12 08:00:00,
2013-03-12 04:05:00,51.7,49.2,29.86,East,95,1.0,3.0,91,0.02,,---,0.03,VWS V14.01,2013-03-12 08:05:00,
2013-03-12 04:10:00,51.8,49.3,29.86,SW,219,0.0,6.0,91,0.02,,---,0.03,VWS V14.01,2013-03-12 08:10:00,
2013-03-12 04:15:00,51.9,49.4,29.86,East,98,0.0,6.0,91,0.02,,---,0.03,VWS V14.01,2013-03-12 08:15:00,
2013-03-12 04:20:00,51.9,49.4,29.86,SSW,193,0.0,6.0,91,0.02,,---,0.03,VWS V14.01,2013-03-12 08:20:00,
2013-03-12 04:24:00,52.1,49.8,29.86,ENE,72,2.0,6.0,92,0.02,,---,0.03,VWS V14.01,2013-03-12 08:24:00,
2013-03-12 04:29:00,52.2,49.7,29.85,ESE,108,2.0,6.0,91,0.02,,---,0.03,VWS V14.01,2013-03-12 08:29:00,
2013-03-12 04:30:00,52.2,49.7,29.85,South,177,1.0,6.0,91,0.02,,---,0.03,VWS V14.01,2013-03-12 08:30:00,
2013-03-12 04:34:00,52.2,49.7,29.85,ESE,115,2.0,4.0,91,0.01,,---,0.03,VWS V14.01,2013-03-12 08:34:00,
2013-03-12 04:39:00,52.2,49.7,29.85,WSW,238,3.0,5.0,91,0.01,,---,0.03,VWS V14.01,2013-03-12 08:39:00,
2013-03-12 04:44:00,52.2,49.7,29.85,SE,134,1.0,5.0,91,0.01,,---,0.03,VWS V14.01,2013-03-12 08:44:00,
2013-03-12 04:49:00,52.1,49.6,29.85,ENE,63,1.0,6.0,91,0.01,,---,0.03,VWS V14.01,2013-03-12 08:49:00,
2013-03-12 04:54:00,52.1,49.6,29.84,SE,130,4.0,6.0,91,0.01,,---,0.03,VWS V14.01,2013-03-12 08:54:00,
2013-03-12 04:59:00,52.1,49.6,29.85,West,266,2.0,6.0,91,0.01,,---,0.03,VWS V14.01,2013-03-12 08:59:00,
2013-03-12 05:00:00,52.1,49.6,29.85,SE,145,0.0,6.0,91,0.01,,---,0.03,VWS V14.01,2013-03-12 09:00:00,
2013-03-12 05:04:00,52.0,49.5,29.85,ESE,123,0.0,3.0,91,0.01,,---,0.04,VWS V14.01,2013-03-12 09:04:00,
2013-03-12 05:09:00,51.9,49.4,29.85,East,82,3.0,4.0,91,0.01,,---,0.04,VWS V14.01,2013-03-12 09:09:00,
2013-03-12 05:14:00,51.9,49.4,29.85,NE,56,0.0,5.0,91,0.01,,---,0.04,VWS V14.01,2013-03-12 09:14:00,
2013-03-12 05:19:00,52.0,49.5,29.85,ESE,111,0.0,5.0,91,0.01,,---,0.04,VWS V14.01,2013-03-12 09:19:00,
2013-03-12 05:24:00,52.0,49.5,29.84,East,98,3.0,5.0,91,0.01,,---,0.04,VWS V14.01,2013-03-12 09:24:00,
2013-03-12 05:29:00,52.0,49.5,29.84,SE,136,0.0,5.0,91,0.01,,---,0.04,VWS V14.01,2013-03-12 09:29:00,
2013-03-12 05:30:00,52.0,49.5,29.84,SW,229,0.0,5.0,91,0.01,,---,0.04,VWS V14.01,2013-03-12 09:30:00,
2013-03-12 05:34:00,51.9,49.4,29.84,WNW,283,1.0,4.0,91,0.01,,---,0.04,VWS V14.01,2013-03-12 09:34:00,
2013-03-12 05:39:00,52.0,49.5,29.84,East,81,2.0,4.0,91,0.01,,---,0.04,VWS V14.01,2013-03-12 09:39:00,
2013-03-12 05:44:00,52.1,49.8,29.84,East,95,1.0,5.0,92,0.01,,---,0.04,VWS V14.01,2013-03-12 09:44:00,
2013-03-12 05:49:00,52.1,49.6,29.84,East,98,1.0,5.0,91,0.01,,---,0.04,VWS V14.01,2013-03-12 09:49:00,
2013-03-12 05:54:00,52.1,49.6,29.85,SE,124,1.0,5.0,91,0.01,,---,0.04,VWS V14.01,2013-03-12 09:54:00,
2013-03-12 05:59:00,52.2,49.7,29.85,SE,141,0.0,5.0,91,0.01,,---,0.04,VWS V14.01,2013-03-12 09:59:00,
2013-03-12 06:00:00,52.1,49.6,29.85,East,97,2.0,5.0,91,0.01,,---,0.04,VWS V14.01,2013-03-12 10:00:00,
2013-03-12 06:04:00,52.1,49.8,29.85,SE,124,5.0,5.0,92,0.02,,---,0.05,VWS V14.01,2013-03-12 10:04:00,
2013-03-12 06:09:00,52.0,49.8,29.84,East,101,0.0,5.0,92,0.02,,---,0.05,VWS V14.01,2013-03-12 10:09:00,
2013-03-12 06:14:00,51.8,49.5,29.84,West,276,1.0,6.0,92,0.02,,---,0.05,VWS V14.01,2013-03-12 10:14:00,
2013-03-12 06:19:00,51.7,49.5,29.84,ENE,76,4.0,7.0,92,0.02,,---,0.05,VWS V14.01,2013-03-12 10:19:00,
2013-03-12 06:24:00,51.6,49.7,29.84,SE,127,0.0,7.0,93,0.02,,---,0.05,VWS V14.01,2013-03-12 10:24:00,
2013-03-12 06:29:00,51.5,49.5,29.84,ESE,120,0.0,7.0,93,0.03,,---,0.06,VWS V14.01,2013-03-12 10:29:00,
2013-03-12 06:30:00,51.5,49.5,29.84,WNW,290,0.0,7.0,93,0.03,,---,0.06,VWS V14.01,2013-03-12 10:30:00,
2013-03-12 06:34:00,51.4,49.5,29.83,SSW,198,1.0,3.0,93,0.02,,---,0.06,VWS V14.01,2013-03-12 10:34:00,
2013-03-12 06:39:00,51.4,49.5,29.83,ESE,110,0.0,6.0,93,0.03,,---,0.07,VWS V14.01,2013-03-12 10:39:00,
2013-03-12 06:44:00,51.3,49.6,29.83,ESE,116,0.0,6.0,94,0.03,,---,0.07,VWS V14.01,2013-03-12 10:44:00,
2013-03-12 06:49:00,51.3,49.6,29.83,East,80,4.0,6.0,94,0.03,,---,0.07,VWS V14.01,2013-03-12 10:49:00,
2013-03-12 06:54:00,51.3,49.6,29.83,SE,131,0.0,7.0,94,0.03,,---,0.07,VWS V14.01,2013-03-12 10:54:00,
2013-03-12 06:59:00,51.3,49.6,29.83,East,93,3.0,7.0,94,0.03,,---,0.07,VWS V14.01,2013-03-12 10:59:00,
2013-03-12 07:00:00,51.3,49.6,29.83,WSW,252,1.0,7.0,94,0.03,,---,0.07,VWS V14.01,2013-03-12 11:00:00,
2013-03-12 07:04:00,51.4,49.7,29.83,SE,129,1.0,2.0,94,0.04,,---,0.08,VWS V14.01,2013-03-12 11:04:00,
2013-03-12 07:09:00,51.3,49.6,29.82,ENE,78,1.0,3.0,94,0.04,,---,0.08,VWS V14.01,2013-03-12 11:09:00,
2013-03-12 07:14:00,51.3,49.9,29.82,SE,141,1.0,3.0,95,0.04,,---,0.08,VWS V14.01,2013-03-12 11:14:00,
2013-03-12 07:19:00,51.3,49.9,29.82,South,169,1.0,4.0,95,0.05,,---,0.09,VWS V14.01,2013-03-12 11:19:00,
2013-03-12 07:24:00,51.4,50.0,29.82,SE,140,1.0,6.0,95,0.06,,---,0.10,VWS V14.01,2013-03-12 11:24:00,
2013-03-12 07:29:00,51.4,50.0,29.82,ESE,102,0.0,6.0,95,0.06,,---,0.10,VWS V14.01,2013-03-12 11:29:00,
2013-03-12 07:30:00,51.4,50.0,29.82,East,79,4.0,6.0,95,0.06,,---,0.10,VWS V14.01,2013-03-12 11:30:00,
2013-03-12 07:34:00,51.4,50.0,29.82,East,83,4.0,4.0,95,0.05,,---,0.11,VWS V14.01,2013-03-12 11:34:00,
2013-03-12 07:39:00,51.4,50.0,29.81,SE,133,4.0,5.0,95,0.05,,---,0.11,VWS V14.01,2013-03-12 11:39:00,
2013-03-12 07:44:00,51.4,50.0,29.81,NW,314,0.0,7.0,95,0.06,,---,0.12,VWS V14.01,2013-03-12 11:44:00,
2013-03-12 07:49:00,51.4,50.0,29.81,ESE,112,1.0,7.0,95,0.07,,---,0.13,VWS V14.01,2013-03-12 11:49:00,
2013-03-12 07:54:00,51.4,50.0,29.81,SE,135,1.0,7.0,95,0.07,,---,0.14,VWS V14.01,2013-03-12 11:54:00,
2013-03-12 07:59:00,51.5,50.1,29.80,ESE,112,1.0,7.0,95,0.10,,---,0.16,VWS V14.01,2013-03-12 11:59:00,
2013-03-12 08:00:00,51.5,50.4,29.80,SE,139,4.0,9.0,96,0.10,,---,0.16,VWS V14.01,2013-03-12 12:00:00,
2013-03-12 08:04:00,51.6,50.5,29.79,WSW,255,1.0,5.0,96,0.12,,---,0.19,VWS V14.01,2013-03-12 12:04:00,
2013-03-12 08:09:00,51.7,50.6,29.79,NNE,23,1.0,6.0,96,0.12,,---,0.19,VWS V14.01,2013-03-12 12:09:00,
2013-03-12 08:14:00,51.8,50.7,29.79,NW,307,2.0,9.0,96,0.14,,---,0.21,VWS V14.01,2013-03-12 12:14:00,
2013-03-12 08:19:00,51.9,50.8,29.78,East,96,3.0,9.0,96,0.14,,---,0.21,VWS V14.01,2013-03-12 12:19:00,
2013-03-12 08:24:00,52.1,51.0,29.78,East,98,0.0,9.0,96,0.14,,---,0.21,VWS V14.01,2013-03-12 12:24:00,
2013-03-12 08:29:00,52.2,51.1,29.78,ENE,70,1.0,9.0,96,0.14,,---,0.21,VWS V14.01,2013-03-12 12:29:00,
2013-03-12 08:30:00,52.2,51.1,29.78,East,88,1.0,9.0,96,0.14,,---,0.21,VWS V14.01,2013-03-12 12:30:00,
2013-03-12 08:34:00,52.3,51.2,29.78,NE,53,2.0,4.0,96,0.11,,---,0.21,VWS V14.01,2013-03-12 12:34:00,
2013-03-12 08:39:00,52.4,51.3,29.78,SW,233,4.0,10.0,96,0.11,,---,0.21,VWS V14.01,2013-03-12 12:39:00,
2013-03-12 08:44:00,52.4,51.3,29.78,East,86,4.0,10.0,96,0.11,,---,0.21,VWS V14.01,2013-03-12 12:44:00,
2013-03-12 08:49:00,52.5,51.4,29.78,SW,229,2.0,10.0,96,0.11,,---,0.21,VWS V14.01,2013-03-12 12:49:00,
2013-03-12 08:54:00,52.6,51.5,29.78,ENE,57,2.0,10.0,96,0.11,,---,0.21,VWS V14.01,2013-03-12 12:54:00,
2013-03-12 08:59:00,52.7,51.6,29.77,SE,125,3.0,10.0,96,0.11,,---,0.21,VWS V14.01,2013-03-12 12:59:00,
2013-03-12 09:00:00,52.7,51.6,29.77,SW,230,0.0,10.0,96,0.11,,---,0.21,VWS V14.01,2013-03-12 13:00:00,
2013-03-12 09:04:00,52.7,51.6,29.77,SSE,157,0.0,7.0,96,0.06,,---,0.22,VWS V14.01,2013-03-12 13:04:00,
2013-03-12 09:09:00,52.6,51.5,29.77,SSE,154,2.0,7.0,96,0.06,,---,0.22,VWS V14.01,2013-03-12 13:09:00,
2013-03-12 09:14:00,52.6,51.5,29.77,NE,39,1.0,7.0,96,0.06,,---,0.22,VWS V14.01,2013-03-12 13:14:00,
2013-03-12 09:19:00,52.7,51.6,29.77,ESE,117,4.0,7.0,96,0.06,,---,0.22,VWS V14.01,2013-03-12 13:19:00,
2013-03-12 09:24:00,52.7,51.6,29.76,ESE,123,3.0,9.0,96,0.06,,---,0.22,VWS V14.01,2013-03-12 13:24:00,
2013-03-12 09:29:00,52.6,51.5,29.76,ENE,67,1.0,9.0,96,0.06,,---,0.22,VWS V14.01,2013-03-12 13:29:00,
2013-03-12 09:30:00,52.6,51.5,29.76,ESE,108,1.0,9.0,96,0.06,,---,0.22,VWS V14.01,2013-03-12 13:30:00,
2013-03-12 09:34:00,52.7,51.6,29.76,SSE,147,1.0,5.0,96,0.01,,---,0.22,VWS V14.01,2013-03-12 13:34:00,
2013-03-12 09:39:00,52.7,51.6,29.76,East,82,2.0,5.0,96,0.01,,---,0.22,VWS V14.01,2013-03-12 13:39:00,
2013-03-12 09:44:00,52.7,51.6,29.76,ENE,72,0.0,5.0,96,0.01,,---,0.22,VWS V14.01,2013-03-12 13:44:00,
2013-03-12 09:49:00,52.7,51.6,29.75,NE,46,1.0,5.0,96,0.01,,---,0.22,VWS V14.01,2013-03-12 13:49:00,
2013-03-12 09:54:00,52.7,51.6,29.75,NNE,30,1.0,5.0,96,0.01,,---,0.22,VWS V14.01,2013-03-12 13:54:00,
2013-03-12 09:59:00,52.8,51.7,29.75,SSW,204,1.0,8.0,96,0.01,,---,0.22,VWS V14.01,2013-03-12 13:59:00,
2013-03-12 10:00:00,52.9,51.8,29.75,West,268,2.0,8.0,96,0.01,,---,0.22,VWS V14.01,2013-03-12 14:00:00,
2013-03-12 10:04:00,52.9,51.8,29.75,West,279,2.0,8.0,96,0.01,,---,0.22,VWS V14.01,2013-03-12 14:04:00,
2013-03-12 10:09:00,52.9,51.8,29.74,NE,51,1.0,8.0,96,0.01,,---,0.22,VWS V14.01,2013-03-12 14:09:00,
2013-03-12 10:14:00,52.9,51.8,29.74,WNW,283,1.0,8.0,96,0.02,,---,0.23,VWS V14.01,2013-03-12 14:14:00,
2013-03-12 10:19:00,52.9,51.8,29.73,ESE,113,2.0,8.0,96,0.02,,---,0.23,VWS V14.01,2013-03-12 14:19:00,
2013-03-12 10:24:00,53.0,51.9,29.74,NE,55,1.0,10.0,96,0.02,,---,0.23,VWS V14.01,2013-03-12 14:24:00,
2013-03-12 10:29:00,53.1,52.0,29.73,ENE,71,0.0,10.0,96,0.02,,---,0.23,VWS V14.01,2013-03-12 14:29:00,
2013-03-12 10:30:00,53.2,52.1,29.73,ESE,115,3.0,10.0,96,0.02,,---,0.23,VWS V14.01,2013-03-12 14:30:00,
2013-03-12 10:34:00,53.3,52.2,29.73,South,189,2.0,5.0,96,0.01,,---,0.23,VWS V14.01,2013-03-12 14:34:00,
2013-03-12 10:39:00,53.4,52.3,29.72,ENE,62,2.0,5.0,96,0.02,,---,0.24,VWS V14.01,2013-03-12 14:39:00,
2013-03-12 10:44:00,53.6,52.5,29.71,ENE,58,7.0,14.0,96,0.03,,---,0.25,VWS V14.01,2013-03-12 14:44:00,
2013-03-12 10:49:00,53.7,52.6,29.71,North,349,2.0,14.0,96,0.03,,---,0.25,VWS V14.01,2013-03-12 14:49:00,
2013-03-12 10:54:00,53.8,52.7,29.71,South,182,3.0,14.0,96,0.03,,---,0.25,VWS V14.01,2013-03-12 14:54:00,
2013-03-12 10:59:00,54.0,52.9,29.70,ENE,68,7.0,14.0,96,0.03,,---,0.25,VWS V14.01,2013-03-12 14:59:00,
2013-03-12 11:00:00,54.0,52.9,29.70,South,172,4.0,14.0,96,0.04,,---,0.26,VWS V14.01,2013-03-12 15:00:00,
2013-03-12 11:04:00,54.1,53.0,29.71,WSW,247,2.0,10.0,96,0.04,,---,0.26,VWS V14.01,2013-03-12 15:04:00,
2013-03-12 11:09:00,54.1,53.0,29.70,West,262,1.0,10.0,96,0.04,,---,0.26,VWS V14.01,2013-03-12 15:09:00,
2013-03-12 11:14:00,54.2,53.1,29.70,NNE,15,2.0,10.0,96,0.04,,---,0.26,VWS V14.01,2013-03-12 15:14:00,
2013-03-12 11:19:00,54.3,53.2,29.70,SE,136,6.0,10.0,96,0.04,,---,0.26,VWS V14.01,2013-03-12 15:19:00,
2013-03-12 11:24:00,54.3,53.2,29.70,North,360,2.0,11.0,96,0.04,,---,0.26,VWS V14.01,2013-03-12 15:24:00,
2013-03-12 11:29:00,54.2,53.1,29.71,SSE,153,1.0,11.0,96,0.04,,---,0.26,VWS V14.01,2013-03-12 15:29:00,
2013-03-12 11:30:00,54.2,52.8,29.72,NW,308,1.0,11.0,95,0.04,,---,0.26,VWS V14.01,2013-03-12 15:30:00,
2013-03-12 11:34:00,54.2,53.1,29.74,West,280,5.0,9.0,96,0.03,,---,0.26,VWS V14.01,2013-03-12 15:34:00,
2013-03-12 11:39:00,54.5,53.4,29.73,West,273,4.0,9.0,96,0.19,,---,0.42,VWS V14.01,2013-03-12 15:39:00,
2013-03-12 11:44:00,55.1,54.0,29.73,SSE,168,1.0,9.0,96,0.23,,---,0.46,VWS V14.01,2013-03-12 15:44:00,
2013-03-12 11:49:00,55.3,54.2,29.73,WSW,253,0.0,9.0,96,0.25,,---,0.48,VWS V14.01,2013-03-12 15:49:00,
2013-03-12 11:54:00,55.3,54.2,29.73,WSW,253,0.0,9.0,96,0.28,,---,0.51,VWS V14.01,2013-03-12 15:54:00,
2013-03-12 11:59:00,55.5,54.4,29.73,WSW,253,0.0,9.0,96,0.29,,---,0.52,VWS V14.01,2013-03-12 15:59:00,
2013-03-12 12:00:00,55.5,54.4,29.73,WSW,253,0.0,9.0,96,0.30,,---,0.53,VWS V14.01,2013-03-12 16:00:00,
2013-03-12 12:04:00,55.6,54.5,29.73,WSW,253,0.0,0.0,96,0.28,,---,0.54,VWS V14.01,2013-03-12 16:04:00,
2013-03-12 12:09:00,55.7,54.9,29.73,WSW,253,0.0,0.0,97,0.29,,---,0.55,VWS V14.01,2013-03-12 16:09:00,
2013-03-12 12:14:00,55.9,55.1,29.73,WSW,253,0.0,0.0,97,0.29,,---,0.55,VWS V14.01,2013-03-12 16:14:00,
2013-03-12 12:19:00,56.2,55.4,29.73,WSW,253,0.0,0.0,97,0.31,,---,0.57,VWS V14.01,2013-03-12 16:19:00,
2013-03-12 12:24:00,56.2,55.4,29.72,WSW,254,0.0,0.0,97,0.32,,---,0.58,VWS V14.01,2013-03-12 16:24:00,
2013-03-12 12:29:00,56.6,55.8,29.73,WSW,257,0.0,2.0,97,0.33,,---,0.59,VWS V14.01,2013-03-12 16:29:00,
2013-03-12 12:30:00,56.8,56.0,29.73,WSW,257,0.0,2.0,97,0.33,,---,0.59,VWS V14.01,2013-03-12 16:30:00,
2013-03-12 12:34:00,57.0,56.2,29.73,West,264,2.0,2.0,97,0.33,,---,0.59,VWS V14.01,2013-03-12 16:34:00,
2013-03-12 12:39:00,57.4,56.6,29.73,West,281,1.0,3.0,97,0.34,,---,0.60,VWS V14.01,2013-03-12 16:39:00,
2013-03-12 12:44:00,57.1,56.3,29.74,SW,221,3.0,6.0,97,0.34,,---,0.60,VWS V14.01,2013-03-12 16:44:00,
2013-03-12 12:49:00,55.6,54.5,29.75,West,270,5.0,8.0,96,0.35,,---,0.61,VWS V14.01,2013-03-12 16:49:00,
2013-03-12 12:54:00,54.6,53.5,29.75,WSW,258,3.0,8.0,96,0.35,,---,0.61,VWS V14.01,2013-03-12 16:54:00,
2013-03-12 12:59:00,54.1,53.0,29.75,West,259,2.0,8.0,96,0.36,,---,0.62,VWS V14.01,2013-03-12 16:59:00,
2013-03-12 13:00:00,54.0,52.9,29.75,West,261,1.0,8.0,96,0.37,,---,0.63,VWS V14.01,2013-03-12 17:00:00,
2013-03-12 13:04:00,53.9,52.8,29.75,West,277,3.0,6.0,96,0.11,,---,0.64,VWS V14.01,2013-03-12 17:04:00,
2013-03-12 13:09:00,53.7,52.6,29.75,West,281,3.0,6.0,96,0.11,,---,0.64,VWS V14.01,2013-03-12 17:09:00,
2013-03-12 13:14:00,54.0,52.9,29.75,West,274,2.0,6.0,96,0.12,,---,0.65,VWS V14.01,2013-03-12 17:14:00,
2013-03-12 13:19:00,54.2,53.1,29.75,WNW,300,2.0,6.0,96,0.12,,---,0.65,VWS V14.01,2013-03-12 17:19:00,
2013-03-12 13:24:00,54.4,53.3,29.75,WNW,295,1.0,6.0,96,0.12,,---,0.65,VWS V14.01,2013-03-12 17:24:00,
2013-03-12 13:29:00,54.8,53.7,29.75,NW,312,0.0,6.0,96,0.12,,---,0.65,VWS V14.01,2013-03-12 17:29:00,
2013-03-12 13:30:00,54.7,53.6,29.75,West,278,3.0,6.0,96,0.12,,---,0.65,VWS V14.01,2013-03-12 17:30:00,
2013-03-12 13:34:00,54.5,53.1,29.75,WNW,295,1.0,5.0,95,0.06,,---,0.65,VWS V14.01,2013-03-12 17:34:00,
2013-03-12 13:39:00,54.6,53.2,29.75,WNW,288,0.0,7.0,95,0.06,,---,0.65,VWS V14.01,2013-03-12 17:39:00,
2013-03-12 13:44:00,55.0,53.6,29.76,WNW,283,1.0,7.0,95,0.06,,---,0.65,VWS V14.01,2013-03-12 17:44:00,
2013-03-12 13:49:00,55.0,53.0,29.76,NW,306,2.0,9.0,93,0.06,,---,0.65,VWS V14.01,2013-03-12 17:49:00,
2013-03-12 13:54:00,55.2,52.9,29.76,WNW,301,1.0,9.0,92,0.06,,---,0.65,VWS V14.01,2013-03-12 17:54:00,
2013-03-12 13:59:00,55.5,53.2,29.76,NW,322,2.0,9.0,92,0.06,,---,0.65,VWS V14.01,2013-03-12 17:59:00,
2013-03-12 14:00:00,55.6,53.3,29.76,NNE,27,3.0,9.0,92,0.06,,---,0.65,VWS V14.01,2013-03-12 18:00:00,
2013-03-12 14:04:00,55.6,53.0,29.76,NNW,328,2.0,3.0,91,0.02,,---,0.65,VWS V14.01,2013-03-12 18:04:00,
2013-03-12 14:09:00,55.8,52.6,29.76,NW,306,1.0,5.0,89,0.02,,---,0.65,VWS V14.01,2013-03-12 18:09:00,
2013-03-12 14:14:00,56.0,53.1,29.76,North,352,1.0,5.0,90,0.02,,---,0.65,VWS V14.01,2013-03-12 18:14:00,
2013-03-12 14:19:00,56.4,53.2,29.75,WNW,290,1.0,7.0,89,0.02,,---,0.65,VWS V14.01,2013-03-12 18:19:00,
2013-03-12 14:24:00,56.7,53.2,29.75,NNW,333,3.0,7.0,88,0.02,,---,0.65,VWS V14.01,2013-03-12 18:24:00,
2013-03-12 14:29:00,57.3,53.8,29.75,NNW,328,2.0,7.0,88,0.02,,---,0.65,VWS V14.01,2013-03-12 18:29:00,
2013-03-12 14:30:00,57.4,53.6,29.75,NNW,328,1.0,7.0,87,0.02,,---,0.65,VWS V14.01,2013-03-12 18:30:00,
2013-03-12 14:34:00,57.9,54.4,29.75,NW,325,1.0,2.0,88,0.00,,---,0.65,VWS V14.01,2013-03-12 18:34:00,
2013-03-12 14:39:00,57.9,52.8,29.75,NW,321,3.0,8.0,83,0.00,,---,0.65,VWS V14.01,2013-03-12 18:39:00,
2013-03-12 14:44:00,58.0,52.9,29.74,NW,319,3.0,8.0,83,0.00,,---,0.65,VWS V14.01,2013-03-12 18:44:00,
2013-03-12 14:49:00,58.2,53.1,29.75,WNW,283,2.0,8.0,83,0.00,,---,0.65,VWS V14.01,2013-03-12 18:49:00,
2013-03-12 14:54:00,58.8,53.7,29.75,West,281,4.0,8.0,83,0.00,,---,0.65,VWS V14.01,2013-03-12 18:54:00,
2013-03-12 14:59:00,58.9,52.4,29.75,WNW,300,3.0,9.0,79,0.00,,---,0.65,VWS V14.01,2013-03-12 18:59:00,
2013-03-12 15:00:00,58.9,52.1,29.75,SE,133,4.0,9.0,78,0.00,,---,0.65,VWS V14.01,2013-03-12 19:00:00,
2013-03-12 15:04:00,59.0,52.2,29.75,NW,318,2.0,10.0,78,0.00,,---,0.65,VWS V14.01,2013-03-12 19:04:00,
2013-03-12 15:09:00,59.4,51.8,29.75,West,274,3.0,10.0,76,0.00,,---,0.65,VWS V14.01,2013-03-12 19:09:00,
2013-03-12 15:14:00,59.1,51.5,29.75,NW,306,3.0,10.0,76,0.00,,---,0.65,VWS V14.01,2013-03-12 19:14:00,
2013-03-12 15:19:00,58.4,51.2,29.75,WNW,294,3.0,10.0,77,0.00,,---,0.65,VWS V14.01,2013-03-12 19:19:00,
2013-03-12 15:24:00,58.0,50.8,29.75,NE,37,6.0,10.0,77,0.00,,---,0.65,VWS V14.01,2013-03-12 19:24:00,
2013-03-12 15:29:00,58.2,50.7,29.75,West,276,1.0,10.0,76,0.00,,---,0.65,VWS V14.01,2013-03-12 19:29:00,
2013-03-12 15:30:00,58.4,50.5,29.75,NNW,345,3.0,10.0,75,0.00,,---,0.65,VWS V14.01,2013-03-12 19:30:00,
2013-03-12 15:34:00,58.8,51.3,29.75,NW,316,3.0,7.0,76,0.00,,---,0.65,VWS V14.01,2013-03-12 19:34:00,
2013-03-12 15:39:00,58.6,50.3,29.75,NW,326,2.0,7.0,74,0.00,,---,0.65,VWS V14.01,2013-03-12 19:39:00,
2013-03-12 15:44:00,58.4,50.2,29.75,NNW,341,3.0,7.0,74,0.00,,---,0.65,VWS V14.01,2013-03-12 19:44:00,
2013-03-12 15:49:00,58.3,49.7,29.75,WNW,292,11.0,11.0,73,0.00,,---,0.65,VWS V14.01,2013-03-12 19:49:00,
2013-03-12 15:54:00,58.5,49.1,29.75,NW,314,6.0,11.0,71,0.00,,---,0.65,VWS V14.01,2013-03-12 19:54:00,
2013-03-12 15:59:00,58.6,48.9,29.75,North,354,4.0,11.0,70,0.00,,---,0.65,VWS V14.01,2013-03-12 19:59:00,
2013-03-12 16:00:00,58.7,49.0,29.75,WNW,300,2.0,11.0,70,0.00,,---,0.65,VWS V14.01,2013-03-12 20:00:00,
2013-03-12 16:04:00,58.7,48.6,29.76,West,271,4.0,8.0,69,0.00,,---,0.65,VWS V14.01,2013-03-12 20:04:00,
2013-03-12 16:09:00,58.8,48.3,29.76,WNW,291,1.0,8.0,68,0.00,,---,0.65,VWS V14.01,2013-03-12 20:09:00,
2013-03-12 16:14:00,58.5,48.4,29.76,NW,310,2.0,8.0,69,0.00,,---,0.65,VWS V14.01,2013-03-12 20:14:00,
2013-03-12 16:19:00,58.4,48.7,29.76,North,352,3.0,8.0,70,0.00,,---,0.65,VWS V14.01,2013-03-12 20:19:00,
2013-03-12 16:24:00,58.2,48.1,29.76,West,274,2.0,8.0,69,0.00,,---,0.65,VWS V14.01,2013-03-12 20:24:00,
2013-03-12 16:29:00,58.1,48.8,29.77,WNW,288,3.0,10.0,71,0.00,,---,0.65,VWS V14.01,2013-03-12 20:29:00,
2013-03-12 16:30:00,58.0,48.7,29.77,WNW,292,2.0,10.0,71,0.00,,---,0.65,VWS V14.01,2013-03-12 20:30:00,
2013-03-12 16:34:00,57.7,48.4,29.77,NE,41,1.0,5.0,71,0.00,,---,0.65,VWS V14.01,2013-03-12 20:34:00,
2013-03-12 16:39:00,57.4,47.3,29.77,WNW,295,2.0,5.0,69,0.00,,---,0.65,VWS V14.01,2013-03-12 20:39:00,
2013-03-12 16:44:00,57.1,46.7,29.78,WNW,300,1.0,6.0,68,0.00,,---,0.65,VWS V14.01,2013-03-12 20:44:00,
2013-03-12 16:49:00,57.0,45.4,29.78,West,262,8.0,10.0,65,0.00,,---,0.65,VWS V14.01,2013-03-12 20:49:00,
2013-03-12 16:54:00,56.9,46.1,29.79,WNW,293,3.0,10.0,67,0.00,,---,0.65,VWS V14.01,2013-03-12 20:54:00,
2013-03-12 16:59:00,56.9,45.7,29.79,WNW,287,0.0,10.0,66,0.00,,---,0.65,VWS V14.01,2013-03-12 20:59:00,
2013-03-12 17:00:00,56.9,45.7,29.79,WNW,283,4.0,10.0,66,0.00,,---,0.65,VWS V14.01,2013-03-12 21:00:00,
2013-03-12 17:04:00,56.7,45.5,29.79,NNW,331,2.0,4.0,66,0.00,,---,0.65,VWS V14.01,2013-03-12 21:04:00,
2013-03-12 17:09:00,56.3,45.1,29.79,WNW,291,7.0,10.0,66,0.00,,---,0.65,VWS V14.01,2013-03-12 21:09:00,
2013-03-12 17:14:00,56.1,43.7,29.80,WNW,300,2.0,10.0,63,0.00,,---,0.65,VWS V14.01,2013-03-12 21:14:00,
2013-03-12 17:19:00,55.9,43.9,29.80,SW,229,0.0,10.0,64,0.00,,---,0.65,VWS V14.01,2013-03-12 21:19:00,
2013-03-12 17:24:00,55.7,43.7,29.80,WNW,283,0.0,10.0,64,0.00,,---,0.65,VWS V14.01,2013-03-12 21:24:00,
2013-03-12 17:29:00,55.6,43.6,29.80,NW,314,0.0,10.0,64,0.00,,---,0.65,VWS V14.01,2013-03-12 21:29:00,
2013-03-12 17:30:00,55.6,43.2,29.80,NNW,329,1.0,10.0,63,0.00,,---,0.65,VWS V14.01,2013-03-12 21:30:00,
2013-03-12 17:34:00,55.5,43.1,29.80,NW,311,6.0,8.0,63,0.00,,---,0.65,VWS V14.01,2013-03-12 21:34:00,
2013-03-12 17:39:00,55.3,41.2,29.81,WSW,245,3.0,11.0,59,0.00,,---,0.65,VWS V14.01,2013-03-12 21:39:00,
2013-03-12 17:44:00,55.1,41.5,29.81,NNW,338,3.0,11.0,60,0.00,,---,0.65,VWS V14.01,2013-03-12 21:44:00,
2013-03-12 17:49:00,54.6,41.0,29.81,West,262,1.0,11.0,60,0.00,,---,0.65,VWS V14.01,2013-03-12 21:49:00,
2013-03-12 17:54:00,54.2,40.2,29.81,WNW,297,1.0,11.0,59,0.00,,---,0.65,VWS V14.01,2013-03-12 21:54:00,
2013-03-12 17:59:00,53.9,40.3,29.82,WNW,295,1.0,11.0,60,0.00,,---,0.65,VWS V14.01,2013-03-12 21:59:00,
2013-03-12 18:00:00,53.9,40.3,29.82,SSW,210,1.0,11.0,60,0.00,,---,0.65,VWS V14.01,2013-03-12 22:00:00,
2013-03-12 18:04:00,53.8,41.1,29.82,SW,229,3.0,5.0,62,0.00,,---,0.65,VWS V14.01,2013-03-12 22:04:00,
2013-03-12 18:09:00,53.7,41.0,29.82,NNW,328,1.0,5.0,62,0.00,,---,0.65,VWS V14.01,2013-03-12 22:09:00,
2013-03-12 18:14:00,54.0,41.3,29.82,NW,311,2.0,8.0,62,0.00,,---,0.65,VWS V14.01,2013-03-12 22:14:00,
2013-03-12 18:19:00,54.1,41.0,29.82,NW,310,4.0,8.0,61,0.00,,---,0.65,VWS V14.01,2013-03-12 22:19:00,
2013-03-12 18:24:00,53.8,40.7,29.82,West,265,2.0,9.0,61,0.00,,---,0.65,VWS V14.01,2013-03-12 22:24:00,
2013-03-12 18:29:00,53.4,39.5,29.82,NW,305,2.0,10.0,59,0.00,,---,0.65,VWS V14.01,2013-03-12 22:29:00,
2013-03-12 18:30:00,53.2,39.7,29.82,NW,319,3.0,10.0,60,0.00,,---,0.65,VWS V14.01,2013-03-12 22:30:00,
2013-03-12 18:34:00,52.8,39.3,29.83,NNW,327,4.0,5.0,60,0.00,,---,0.65,VWS V14.01,2013-03-12 22:34:00,
2013-03-12 18:39:00,52.3,38.8,29.83,NW,304,5.0,8.0,60,0.00,,---,0.65,VWS V14.01,2013-03-12 22:39:00,
2013-03-12 18:44:00,51.8,38.8,29.83,NW,319,1.0,8.0,61,0.00,,---,0.65,VWS V14.01,2013-03-12 22:44:00,
2013-03-12 18:49:00,51.4,38.8,29.83,SSW,212,0.0,8.0,62,0.00,,---,0.65,VWS V14.01,2013-03-12 22:49:00,
2013-03-12 18:54:00,51.1,39.0,29.83,West,279,1.0,8.0,63,0.00,,---,0.65,VWS V14.01,2013-03-12 22:54:00,
2013-03-12 18:59:00,50.6,39.3,29.83,NW,304,2.0,8.0,65,0.00,,---,0.65,VWS V14.01,2013-03-12 22:59:00,
2013-03-12 19:00:00,53.9,40.3,29.82,SSW,210,1.0,11.0,60,0.00,,---,0.65,VWS V14.01,2013-03-12 23:00:00,
2013-03-12 19:04:00,50.3,39.0,29.84,NNW,330,1.0,5.0,65,0.00,,---,0.65,VWS V14.01,2013-03-12 23:04:00,
2013-03-12 19:09:00,50.1,38.8,29.85,NW,309,3.0,5.0,65,0.00,,---,0.65,VWS V14.01,2013-03-12 23:09:00,
2013-03-12 19:14:00,50.0,38.3,29.85,NNW,327,4.0,5.0,64,0.00,,---,0.65,VWS V14.01,2013-03-12 23:14:00,
2013-03-12 19:19:00,49.8,38.1,29.85,WNW,300,4.0,5.0,64,0.00,,---,0.65,VWS V14.01,2013-03-12 23:19:00,
2013-03-12 19:24:00,49.5,38.2,29.86,NNW,330,3.0,5.0,65,0.00,,---,0.65,VWS V14.01,2013-03-12 23:24:00,
2013-03-12 19:29:00,49.2,38.0,29.86,NW,326,4.0,5.0,65,0.00,,---,0.65,VWS V14.01,2013-03-12 23:29:00,
2013-03-12 19:30:00,49.1,37.9,29.86,WNW,299,3.0,5.0,65,0.00,,---,0.65,VWS V14.01,2013-03-12 23:30:00,
2013-03-12 19:34:00,49.0,37.8,29.87,NW,323,3.0,9.0,65,0.00,,---,0.65,VWS V14.01,2013-03-12 23:34:00,
2013-03-12 19:39:00,48.8,37.6,29.87,WNW,297,3.0,9.0,65,0.00,,---,0.65,VWS V14.01,2013-03-12 23:39:00,
2013-03-12 19:44:00,48.6,37.4,29.87,WNW,287,3.0,9.0,65,0.00,,---,0.65,VWS V14.01,2013-03-12 23:44:00,
2013-03-12 19:49:00,48.3,37.1,29.88,NNW,345,0.0,9.0,65,0.00,,---,0.65,VWS V14.01,2013-03-12 23:49:00,
2013-03-12 19:54:00,48.1,36.9,29.88,North,2,0.0,9.0,65,0.00,,---,0.65,VWS V14.01,2013-03-12 23:54:00,
2013-03-12 19:59:00,47.9,37.1,29.88,NNW,329,2.0,9.0,66,0.00,,---,0.65,VWS V14.01,2013-03-12 23:59:00,
2013-03-12 20:00:00,50.5,39.2,29.84,NNW,336,1.0,8.0,65,0.00,,---,0.65,VWS V14.01,2013-03-13 00:00:00,
2013-03-12 20:04:00,47.8,37.0,29.88,NW,324,0.0,4.0,66,0.00,,---,0.65,VWS V14.01,2013-03-13 00:04:00,
2013-03-12 20:09:00,47.7,36.9,29.88,NW,324,0.0,4.0,66,0.00,,---,0.65,VWS V14.01,2013-03-13 00:09:00,
2013-03-12 20:14:00,47.4,37.0,29.89,NW,319,3.0,5.0,67,0.00,,---,0.65,VWS V14.01,2013-03-13 00:14:00,
2013-03-12 20:19:00,47.3,36.9,29.89,NNW,348,1.0,5.0,67,0.00,,---,0.65,VWS V14.01,2013-03-13 00:19:00,
2013-03-12 20:24:00,46.9,36.9,29.89,NNW,348,0.0,5.0,68,0.00,,---,0.65,VWS V14.01,2013-03-13 00:24:00,
2013-03-12 20:29:00,46.5,36.9,29.89,North,359,3.0,8.0,69,0.00,,---,0.65,VWS V14.01,2013-03-13 00:29:00,
2013-03-12 20:30:00,46.6,36.6,29.90,NNW,341,4.0,8.0,68,0.00,,---,0.65,VWS V14.01,2013-03-13 00:30:00,
2013-03-12 20:34:00,46.7,36.0,29.90,NNW,347,3.0,7.0,66,0.00,,---,0.65,VWS V14.01,2013-03-13 00:34:00,
2013-03-12 20:39:00,46.6,35.9,29.90,North,8,1.0,7.0,66,0.00,,---,0.65,VWS V14.01,2013-03-13 00:39:00,
2013-03-12 20:44:00,46.4,35.7,29.90,NNW,336,2.0,7.0,66,0.00,,---,0.65,VWS V14.01,2013-03-13 00:44:00,
2013-03-12 20:49:00,46.2,35.9,29.90,NNW,337,1.0,7.0,67,0.00,,---,0.65,VWS V14.01,2013-03-13 00:49:00,
2013-03-12 20:54:00,46.0,35.7,29.90,NW,323,2.0,7.0,67,0.00,,---,0.65,VWS V14.01,2013-03-13 00:54:00,
2013-03-12 20:59:00,45.9,35.2,29.90,NNW,345,3.0,7.0,66,0.00,,---,0.65,VWS V14.01,2013-03-13 00:59:00,
2013-03-12 21:00:00,45.9,35.2,29.90,NNW,335,2.0,7.0,66,0.00,,---,0.65,VWS V14.01,2013-03-13 01:00:00,
2013-03-12 21:04:00,45.7,35.0,29.90,NNE,29,2.0,4.0,66,0.00,,---,0.65,VWS V14.01,2013-03-13 01:04:00,
2013-03-12 21:09:00,45.6,34.9,29.91,NNE,21,2.0,4.0,66,0.00,,---,0.65,VWS V14.01,2013-03-13 01:09:00,
2013-03-12 21:14:00,45.5,34.8,29.91,SSW,205,0.0,4.0,66,0.00,,---,0.65,VWS V14.01,2013-03-13 01:14:00,
2013-03-12 21:19:00,45.3,35.0,29.91,NW,323,1.0,4.0,67,0.00,,---,0.65,VWS V14.01,2013-03-13 01:19:00,
2013-03-12 21:24:00,45.1,35.2,29.91,WNW,283,1.0,4.0,68,0.00,,---,0.65,VWS V14.01,2013-03-13 01:24:00,
2013-03-12 21:29:00,45.0,35.1,29.92,NNW,331,1.0,4.0,68,0.00,,---,0.65,VWS V14.01,2013-03-13 01:29:00,
2013-03-12 21:30:00,45.0,35.1,29.91,NNW,331,1.0,4.0,68,0.00,,---,0.65,VWS V14.01,2013-03-13 01:30:00,
2013-03-12 21:34:00,44.9,35.0,29.91,NW,320,0.0,2.0,68,0.00,,---,0.65,VWS V14.01,2013-03-13 01:34:00,
2013-03-12 21:39:00,44.9,35.0,29.92,West,280,1.0,5.0,68,0.00,,---,0.65,VWS V14.01,2013-03-13 01:39:00,
2013-03-12 21:44:00,44.8,34.5,29.92,NNW,328,5.0,5.0,67,0.00,,---,0.65,VWS V14.01,2013-03-13 01:44:00,
2013-03-12 21:49:00,45.0,34.3,29.92,NNW,340,2.0,5.0,66,0.00,,---,0.65,VWS V14.01,2013-03-13 01:49:00,
2013-03-12 21:54:00,45.0,34.3,29.93,NW,326,2.0,5.0,66,0.00,,---,0.65,VWS V14.01,2013-03-13 01:54:00,
2013-03-12 21:59:00,44.8,34.2,29.93,NNW,335,4.0,5.0,66,0.00,,---,0.65,VWS V14.01,2013-03-13 01:59:00,
2013-03-12 22:00:00,44.8,34.2,29.93,WNW,283,1.0,5.0,66,0.00,,---,0.65,VWS V14.01,2013-03-13 02:00:00,
2013-03-12 22:04:00,44.7,34.0,29.93,NW,315,2.0,3.0,66,0.00,,---,0.65,VWS V14.01,2013-03-13 02:04:00,
2013-03-12 22:09:00,44.4,34.1,29.93,NW,314,0.0,4.0,67,0.00,,---,0.65,VWS V14.01,2013-03-13 02:09:00,
2013-03-12 22:14:00,44.3,34.4,29.93,NNW,335,0.0,4.0,68,0.00,,---,0.65,VWS V14.01,2013-03-13 02:14:00,
2013-03-12 22:19:00,44.2,34.0,29.93,North,360,3.0,4.0,67,0.00,,---,0.65,VWS V14.01,2013-03-13 02:19:00,
2013-03-12 22:24:00,44.2,34.0,29.94,WNW,298,1.0,4.0,67,0.00,,---,0.65,VWS V14.01,2013-03-13 02:24:00,
2013-03-12 22:29:00,44.2,34.0,29.94,WNW,288,1.0,6.0,67,0.00,,---,0.65,VWS V14.01,2013-03-13 02:29:00,
2013-03-12 22:30:00,44.2,34.0,29.93,WNW,288,0.0,6.0,67,0.00,,---,0.65,VWS V14.01,2013-03-13 02:30:00,
2013-03-12 22:34:00,44.1,33.9,29.94,NW,314,1.0,3.0,67,0.00,,---,0.65,VWS V14.01,2013-03-13 02:34:00,
2013-03-12 22:39:00,43.9,34.0,29.94,NNW,343,1.0,3.0,68,0.00,,---,0.65,VWS V14.01,2013-03-13 02:39:00,
2013-03-12 22:44:00,44.0,33.8,29.94,West,269,1.0,3.0,67,0.00,,---,0.65,VWS V14.01,2013-03-13 02:44:00,
2013-03-12 22:49:00,43.8,33.9,29.94,WNW,300,1.0,3.0,68,0.00,,---,0.65,VWS V14.01,2013-03-13 02:49:00,
2013-03-12 22:54:00,43.8,33.9,29.94,WNW,295,2.0,3.0,68,0.00,,---,0.65,VWS V14.01,2013-03-13 02:54:00,
2013-03-12 22:59:00,43.6,33.8,29.94,NNW,332,1.0,4.0,68,0.00,,---,0.65,VWS V14.01,2013-03-13 02:59:00,
2013-03-12 23:00:00,43.6,33.8,29.94,North,1,1.0,4.0,68,0.00,,---,0.65,VWS V14.01,2013-03-13 03:00:00,
2013-03-12 23:04:00,43.4,33.9,29.94,WNW,293,1.0,2.0,69,0.00,,---,0.65,VWS V14.01,2013-03-13 03:04:00,
2013-03-12 23:09:00,43.5,33.7,29.94,NNW,338,0.0,8.0,68,0.00,,---,0.65,VWS V14.01,2013-03-13 03:09:00,
2013-03-12 23:14:00,43.4,33.6,29.95,NNW,340,3.0,8.0,68,0.00,,---,0.65,VWS V14.01,2013-03-13 03:14:00,
2013-03-12 23:19:00,43.5,33.3,29.95,NNW,335,1.0,8.0,67,0.00,,---,0.65,VWS V14.01,2013-03-13 03:19:00,
2013-03-12 23:24:00,43.3,33.1,29.95,NNW,333,1.0,8.0,67,0.00,,---,0.65,VWS V14.01,2013-03-13 03:24:00,
2013-03-12 23:29:00,43.2,33.0,29.95,NNW,336,1.0,8.0,67,0.00,,---,0.65,VWS V14.01,2013-03-13 03:29:00,
2013-03-12 23:30:00,43.1,32.9,29.95,NW,316,0.0,8.0,67,0.00,,---,0.65,VWS V14.01,2013-03-13 03:30:00,
2013-03-12 23:34:00,43.1,32.9,29.95,NW,321,0.0,4.0,67,0.00,,---,0.65,VWS V14.01,2013-03-13 03:34:00,
2013-03-12 23:39:00,42.9,33.1,29.95,WNW,288,2.0,5.0,68,0.00,,---,0.65,VWS V14.01,2013-03-13 03:39:00,
2013-03-12 23:44:00,42.7,32.9,29.95,WSW,243,1.0,5.0,68,0.00,,---,0.65,VWS V14.01,2013-03-13 03:44:00,
2013-03-12 23:49:00,42.6,32.8,29.95,WNW,285,0.0,5.0,68,0.00,,---,0.65,VWS V14.01,2013-03-13 03:49:00,
2013-03-12 23:54:00,42.4,33.0,29.95,NW,315,0.0,5.0,69,0.00,,---,0.65,VWS V14.01,2013-03-13 03:54:00,
2013-03-12 23:59:00,42.2,32.8,29.95,NW,308,1.0,5.0,69,0.00,,---,0.65,VWS V14.01,2013-03-13 03:59:00,